South Lake Tahoe, CA

2:46 PM PST on December 10, 2016 (GMT -0800)
Lake Tahoe

Weather History for KTVL - January, 2013

Change the Weather History Date:

Thursday, January 31, 2013

  Actual Average Record
Temperature  
Mean Temperature 33 °F 30 °F  
Max Temperature 49 °F 43 °F 57 °F (2003)
Min Temperature 17 °F 16 °F -16 °F (1969)
Degree Days  
Heating Degree Days 32 35  
Month to date heating degree days 1209 1092  
Since 1 July heating degree days 4071 4282  
Cooling Degree Days 0 0  
Month to date cooling degree days 0 0  
Year to date cooling degree days 0 0  
Moisture  
Dew Point 19 °F    
Average Humidity 59    
Maximum Humidity 84    
Minimum Humidity 34    
Precipitation  
Precipitation 0.00 in - 3.62 in (1963)
Month to date precipitation 0.71  
Year to date precipitation 0.71  
Sea Level Pressure  
Sea Level Pressure 30.36 in    
Wind  
Wind Speed 2 mph (SSE)    
Max Wind Speed 12 mph    
Max Gust Speed 12 mph    
Visibility 10 miles    
Events      
T = Trace of Precipitation, MM = Missing Value Source: NWS Daily Summary

Daily Weather History Graph

Daily Weather History Graph

Search for Another Location

Airport or City:

Trip Planner

Search our weather history database for the weather conditions in past years. The results will help you decide how hot, cold, wet, or windy it might be!

Date:

Astronomy

Jan. 31, 2013 Rise Set
Actual Time 7:06 AM PST 5:20 PM PST
Civil Twilight 6:38 AM PST 5:48 PM PST
Nautical Twilight 6:06 AM PST 6:20 PM PST
Astronomical Twilight 5:35 AM PST 6:52 PM PST
Moon 10:24 PM PST (1/31) 9:12 AM PST (1/31)
Length of Visible Light 11h 10m
Length of Day
10h 13m
Waning Gibbous, 79% of the Moon is Illuminated
Jan 31
Waning Gibbous
Feb 3
Last Quarter
Feb 9
New
Feb 17
First Quarter
Feb 25
Full

Hourly Weather History & Observations

Time (PST) Temp. Windchill Dew Point Humidity Pressure Visibility Wind Dir Wind Speed Gust Speed Precip Events Conditions
12:53 AM 23.0 °F 18.4 °F 17.1 °F 78% 30.38 in 10.0 mi South 3.5 mph - N/A   Clear
1:53 AM 21.9 °F - 17.1 °F 82% 30.38 in 10.0 mi Calm Calm - N/A   Clear
2:53 AM 21.0 °F - 16.0 °F 81% 30.38 in 10.0 mi Calm Calm - N/A   Clear
3:53 AM 19.9 °F - 16.0 °F 85% 30.38 in 10.0 mi Calm Calm - N/A   Clear
4:53 AM 19.0 °F 13.9 °F 14.0 °F 81% 30.41 in 10.0 mi South 3.5 mph - N/A   Clear
5:53 AM 18.0 °F - 14.0 °F 84% 30.43 in 10.0 mi Calm Calm - N/A   Clear
6:53 AM 19.0 °F - 14.0 °F 81% 30.43 in 10.0 mi Calm Calm - N/A   Clear
7:53 AM 17.1 °F 8.7 °F 12.0 °F 81% 30.48 in 10.0 mi South 5.8 mph - N/A   Clear
8:53 AM 25.0 °F - 18.0 °F 75% 30.44 in 10.0 mi Calm Calm - N/A   Clear
9:53 AM 33.1 °F - 19.0 °F 56% 30.41 in 10.0 mi Calm Calm - N/A   Clear
10:53 AM 44.1 °F - 21.9 °F 42% 30.36 in 10.0 mi Calm Calm - N/A   Clear
11:53 AM 48.9 °F - 21.0 °F 33% 30.32 in 10.0 mi Calm Calm - N/A   Clear
12:53 PM 45.0 °F 40.1 °F 27.0 °F 49% 30.30 in 10.0 mi NNE 9.2 mph - N/A   Clear
1:53 PM 45.0 °F 40.1 °F 28.9 °F 53% 30.29 in 10.0 mi NE 9.2 mph - N/A   Clear
2:53 PM 48.0 °F - 28.0 °F 46% 30.27 in 10.0 mi NNE 6.9 mph - N/A   Clear
3:53 PM 46.0 °F - 25.0 °F 44% 30.27 in 10.0 mi Calm Calm - N/A   Clear
4:53 PM 43.0 °F - 19.9 °F 40% 30.28 in 10.0 mi Calm Calm - N/A   Clear
5:53 PM 36.0 °F - 23.0 °F 59% 30.32 in 10.0 mi Calm Calm - N/A   Clear
6:53 PM 33.1 °F - 21.9 °F 64% 30.35 in 10.0 mi Calm Calm - N/A   Clear
7:53 PM 30.0 °F 26.5 °F 21.0 °F 69% 30.38 in 10.0 mi SSW 3.5 mph - N/A   Clear
8:53 PM 27.0 °F 21.6 °F 19.0 °F 72% 30.36 in 10.0 mi South 4.6 mph - N/A   Clear
9:53 PM 27.0 °F - 17.1 °F 66% 30.32 in 10.0 mi Calm Calm - N/A   Clear
10:53 PM 25.0 °F - 17.1 °F 72% 30.29 in 10.0 mi Calm Calm - N/A   Clear